User: anonymous   Login
Location: Oshawa
(43.9000°N, 78.8670°W)
Time: 17:24:11
(UTC-05:00)
Language:

Cosmos 1953 Rocket - Orbit

View from above orbital plane
View from above orbital plane
View from above satellite
View from above satellite

Ground track
Ground track

The orbit data is extracted from the following two-line orbital elements,

1 19211U 88050B   18052.86024458 +.00000077 +00000-0 +64588-5 0  9998
2 19211 082.5290 328.9082 0022360 018.7014 045.3770 14.82997030582710
Epoch (UTC): 21 February 2018 20:38:45
Eccentricity: 0.0022360
inclination: 82.5290°
perigee height: 604 km
apogee height: 635 km
right ascension of ascending node: 328.9082°
argument of perigee: 18.7014°
revolutions per day: 14.82997030
mean anomaly at epoch: 45.3770°
orbit number at epoch: 58271

The dashed part of the orbit path shows where the satellite is in the earth's shadow,  

DLR